Погода в Хуторе-Боре

Россия / Брянская область     53°06′39″N   34°14′09″E
темп.,
°C
ветер,
м/с
пор.,
м/с
влажн.,
%
обл.,
%
осадки,
мм/ч
давл.,
гПа
погр.,
м
19 сентября, вс
вс1900:00+7вюв81896100 5.9 1012876
03:00+8вюв71596100 9.6 1011745
06:00+7вюв71595100 4.1 1009690
09:00+8вюв61496100 5.8 1009719
12:00+8вюв51397100 5.6 1009700
15:00+8вюв41097100 7.7 1009607
18:00+8в4996100 0.4 1009443
21:00+8всв3798100 0.4 1008302
20 сентября, пн
пн2000:00+8всв369997 0.0 1008238
03:00+9всв3899100 0.0 1007328
06:00+9всв4898100 0.1 1006381
09:00+9всв51198100 3.5 1005445
12:00+10в3899100 8.1 1005532
15:00+9ююз2795100 10.4 1006443
18:00+8ююв2596100 0.3 1007323
21:00+8вюв2498100 0.4 1008176
21 сентября, вт
вт2100:00+8в2497100 0.1 1008195
03:00+8св2598100 0.8 1007255
06:00+8с2498100 0.8 1007269
09:00+8зсз2498100 2.3 1007282
12:00+8з2497100 0.9 1008292
15:00+8з2496100 1.5 1009336
18:00+7з2498100 0.5 1010322
21:00+6зсз3597100 0.7 1011354
22 сентября, ср
ср2200:00+5з3697100 0.1 1011339
03:00+5з2598100 0.2 1011333
06:00+5з2498100 0.0 1011241
09:00+6з1198100 0.1 1011163
12:00+8вюв0191100 0.1 1012310
15:00+9юз0190100 0.4 1012270
18:00+8ссв1296100 0.6 1012113
21:00+7ссв1398100 1.1 1013217
23 сентября, чт
чт2300:00+7всв1299100 0.7 1013160
03:00+7юв1298100 1.0 1013236
06:00+6ю2597100 0.2 1013297
09:00+6ююв2496100 0.7 1013266
12:00+7ююв2492100 0.4 1014402
15:00+7ююв3591100 0.6 1014512
18:00+6ююв3693100 0.0 1014499
21:00+6ю279489 0.1 1014347